Weather History for Cecil Field, FL

Change the Weather History Date:

Friday, September 13, 2013

  Actual Average (KJAX) Record (KJAX)
Temperature  
Mean Temperature 80 °F 79 °F  
Max Temperature 91 °F 88 °F 97 °F (1991)
Min Temperature 68 °F 70 °F 61 °F (1917)
Degree Days  
Heating Degree Days 0 0  
Month to date heating degree days 0  
Since 1 July heating degree days 0  
Cooling Degree Days 14 14  
Month to date cooling degree days 192  
Year to date cooling degree days 2182  
Growing Degree Days 30 (Base 50)    
Moisture  
Dew Point 71 °F    
Average Humidity 90    
Maximum Humidity 100    
Minimum Humidity 49    
Precipitation  
Precipitation 0.00 in 0.28 in 2.96 in (1932)
Month to date precipitation 3.67  
Year to date precipitation 39.03  
Snow  
Snow 0.00 in 0.00 in 0.00 in (2002)
Month to date snowfall 0.0  
Since 1 July snowfall 0.0  
Since 1 September snowfall 0.0  
Snow Depth -    
Sea Level Pressure  
Sea Level Pressure 29.88 in    
Wind  
Wind Speed 1 mph (West)    
Max Wind Speed 7 mph    
Max Gust Speed -    
Visibility 8 miles    
Events      
T = Trace of Precipitation, MM = Missing Value Source: NWS Daily Summary

Daily Weather History Graph

Daily Weather History Graph

Search for Another Location

Airport:

Trip Planner

Search our weather history database for the weather conditions in past years. The results will help you decide how hot, cold, wet, or windy it might be!

Date:

Astronomy

Sep. 13, 2013 Rise Set
Actual Time 7:11 AM EDT 7:35 PM EDT
Civil Twilight 6:46 AM EDT 7:59 PM EDT
Nautical Twilight 6:18 AM EDT 8:27 PM EDT
Astronomical Twilight 5:50 AM EDT 8:55 PM EDT
Moon 3:05 PM EDT (9/13) 12:57 AM EDT (9/13)
Length of Visible Light 13h 12m
Length of Day
12h 24m
First Quarter, 61% of the Moon is Illuminated
Sep 13
First Quarter
Sep 19
Full
Sep 26
Last Quarter
Oct 4
New
Oct 11
First Quarter

Hourly Weather History & Observations

Time (EDT) Temp. Heat Index Dew Point Humidity Pressure Visibility Wind Dir Wind Speed Gust Speed Precip Events Conditions
12:15 AM 73.4 °F - 73.4 °F 100% 29.94 in 10.0 mi Calm Calm - N/A   Partly Cloudy
12:35 AM 73.4 °F - 73.4 °F 100% 29.93 in 10.0 mi Calm Calm - N/A   Scattered Clouds
12:55 AM 71.6 °F - 71.6 °F 100% 29.93 in 10.0 mi Calm Calm - N/A   Mostly Cloudy
1:15 AM 71.6 °F - 71.6 °F 100% 29.93 in 9.0 mi Calm Calm - N/A   Partly Cloudy
1:35 AM 71.6 °F - 71.6 °F 100% 29.92 in 5.0 mi Calm Calm - N/A   Clear
1:55 AM 71.6 °F - 71.6 °F 100% 29.92 in 10.0 mi Calm Calm - N/A   Clear
2:15 AM 71.6 °F - 71.6 °F 100% 29.91 in 8.0 mi Calm Calm - N/A   Clear
2:35 AM 71.6 °F - 71.6 °F 100% 29.91 in 6.0 mi Calm Calm - N/A   Clear
2:55 AM 71.6 °F - 71.6 °F 100% 29.91 in 4.0 mi Calm Calm - N/A   Clear
3:15 AM 71.6 °F - 71.6 °F 100% 29.90 in 5.0 mi Calm Calm - N/A   Clear
3:35 AM 69.8 °F - 69.8 °F 100% 29.89 in 8.0 mi Calm Calm - N/A   Clear
3:55 AM 71.6 °F - 71.6 °F 100% 29.89 in 10.0 mi Calm Calm - N/A   Clear
4:15 AM 71.6 °F - 71.6 °F 100% 29.89 in 6.0 mi Calm Calm - N/A   Clear
4:35 AM 69.8 °F - 69.8 °F 100% 29.88 in 4.0 mi Calm Calm - N/A   Clear
4:55 AM 69.8 °F - 69.8 °F 100% 29.88 in 5.0 mi Calm Calm - N/A   Clear
5:15 AM 68.0 °F - 68.0 °F 100% 29.88 in 9.0 mi Calm Calm - N/A   Clear
5:35 AM 68.0 °F - 68.0 °F 100% 29.88 in 5.0 mi Calm Calm - N/A   Clear
5:55 AM 68.0 °F - 68.0 °F 100% 29.88 in 5.0 mi Calm Calm - N/A   Clear
6:15 AM 68.0 °F - 68.0 °F 100% 29.88 in 3.0 mi Calm Calm - N/A   Clear
6:35 AM 68.0 °F - 68.0 °F 100% 29.88 in 4.0 mi Calm Calm - N/A   Clear
6:50 AM 68.0 °F - 68.0 °F 100% 29.88 in 7.0 mi Calm Calm - N/A   Clear
7:50 AM 68.0 °F - 68.0 °F 100% 29.90 in 10.0 mi Calm Calm - N/A   Clear
8:50 AM 75.2 °F - 73.4 °F 94% 29.91 in 10.0 mi WSW 4.6 mph - N/A   Clear
9:50 AM 80.6 °F 85.4 °F 73.4 °F 79% 29.91 in 10.0 mi WNW 4.6 mph - N/A   Clear
10:50 AM 86.0 °F 95.1 °F 75.2 °F 70% 29.90 in 10.0 mi Variable 4.6 mph - N/A   Clear
11:50 AM 87.8 °F 93.8 °F 71.6 °F 58% 29.90 in 10.0 mi Variable 4.6 mph - N/A   Clear
12:50 PM 89.6 °F 94.7 °F 69.8 °F 52% 29.88 in 10.0 mi WNW 6.9 mph - N/A   Scattered Clouds
1:50 PM 89.6 °F 93.4 °F 68.0 °F 49% 29.86 in 10.0 mi Variable 5.8 mph - N/A   Mostly Cloudy
3:50 PM 91.4 °F 96.8 °F 69.8 °F 49% 29.81 in 10.0 mi Variable 5.8 mph - N/A   Scattered Clouds
4:50 PM 91.4 °F 96.8 °F 69.8 °F 49% 29.80 in 10.0 mi Variable 5.8 mph - N/A   Partly Cloudy
5:50 PM 89.6 °F 93.4 °F 68.0 °F 49% 29.79 in 10.0 mi West 5.8 mph - N/A   Partly Cloudy
6:50 PM 84.2 °F 89.6 °F 71.6 °F 66% 29.80 in 10.0 mi Calm Calm - N/A   Clear
7:50 PM 78.8 °F - 73.4 °F 83% 29.81 in 10.0 mi Calm Calm - N/A   Clear
8:15 PM 77.0 °F - 73.4 °F 89% 29.83 in 10.0 mi Calm Calm - N/A   Clear
8:35 PM 75.2 °F - 73.4 °F 94% 29.83 in 10.0 mi Calm Calm - N/A   Clear
8:55 PM 75.2 °F - 73.4 °F 94% 29.84 in 10.0 mi Calm Calm - N/A   Clear
9:15 PM 73.4 °F - 73.4 °F 100% 29.85 in 9.0 mi Calm Calm - N/A   Clear
9:35 PM 73.4 °F - 71.6 °F 94% 29.85 in 10.0 mi Calm Calm - N/A   Clear
9:55 PM 75.2 °F - 73.4 °F 94% 29.85 in 10.0 mi Calm Calm - N/A   Clear
10:15 PM 75.2 °F - 73.4 °F 94% 29.86 in 10.0 mi Calm Calm - N/A   Clear
10:35 PM 73.4 °F - 73.4 °F 100% 29.86 in 10.0 mi Calm Calm - N/A   Clear
10:55 PM 73.4 °F - 73.4 °F 100% 29.86 in 10.0 mi Calm Calm - N/A   Clear
11:15 PM 73.4 °F - 73.4 °F 100% 29.86 in 9.0 mi Calm Calm - N/A   Clear
11:35 PM 73.4 °F - 73.4 °F 100% 29.86 in 9.0 mi Calm Calm - N/A   Clear
11:55 PM 73.4 °F - 73.4 °F 100% 29.86 in 7.0 mi Calm Calm - N/A   Clear